Thunderstorms From: 22-05-2018 15:00 Until: 23-05-2018 15:00 warning for: Thunderstorms Level: Yellow info button

Although rather usual in this region, locally or potentially dangerous phenomena are expected. (such as local winds, summer thunderstorms, rising streams or high waves) Be aware and pay attention to the latest weather updates, especially if you carry out activities exposed to weather or close to a stream or shoreline. 


Meteo18 Weather Cam more information Meteo18 Weather Cam


warning for Thunderstorms more information blitzortung!


Rain radar more information rain snow radar


Visit our other weather sites:

Template documentation
and downloads

And another site



Weather Underground History page Text

Daily Summary for July 2, 2017 Units:  Metric    English   Both
« Previous Day
Next Day »
Daily Weekly Monthly Yearly Custom
  High: Low: Average:
Temperature: -17.8 °C -10.3 °C -9.3 °C
Dew Point: -17.8 °C -11 °C -10.1 °C
Humidity: Humidity % 83 % 91 %
Wind Speed: 0 km/h 0 km/h 7.1 km/h
Wind Gust: 0 km/h - -
Wind:- - WSW
Pressure: 0 hPa 34635.4 hPa -
Precipitation: 7.62 mm    
Historical Graphs
 
 
Tabular Data for July 2, 2017
Time Temperature Dew Point Pressure Wind Wind Speed Wind Gust Humidity Rainfall Rate (Hourly)
-17.8 °C -17.8 °C 0 hPa Calm     Humidity % 0 mm
00:02 -9.6 °C -10.1 °C 34635.4 hPa Calm   5.1 km/h 94 % 0 mm
00:07 -9.6 °C -10 °C 34635.4 hPa SSE 2.6 km/h 5.1 km/h 95 % 0 mm
00:12 -9.6 °C -10 °C 34635.4 hPa Calm   5.1 km/h 95 % 0 mm
00:17 -9.6 °C -10 °C 34635.4 hPa WSW 2.6 km/h 5.1 km/h 95 % 0 mm
00:22 -9.6 °C -10.1 °C 34635.4 hPa Calm   5.1 km/h 95 % 0 mm
00:27 -9.6 °C -9.9 °C 34635.4 hPa West 2.6 km/h 5.1 km/h 96 % 0 mm
00:32 -9.6 °C -10 °C 34635.4 hPa WNW 5.1 km/h 5.1 km/h 95 % 0 mm
00:37 -9.6 °C -10.1 °C 34635.4 hPa WNW 2.6 km/h 7.7 km/h 95 % 0 mm
00:42 -9.7 °C -10.1 °C 34635.4 hPa Calm   7.7 km/h 95 % 0 mm
00:52 -9.7 °C -10 °C 34635.4 hPa Calm   7.7 km/h 96 % 0 mm
00:57 -9.6 °C -9.9 °C 34635.4 hPa Calm   2.6 km/h 96 % 0 mm
01:02 -9.6 °C -9.9 °C 34635.4 hPa Calm     96 % 0 mm
01:07 -9.6 °C -9.9 °C 34635.4 hPa Calm     96 % 0 mm
01:12 -9.7 °C -10.1 °C 34635.4 hPa WNW 5.1 km/h   95 % 0 mm
01:22 -9.6 °C -9.9 °C 34645.6 hPa SW 2.6 km/h 5.1 km/h 96 % 0 mm
01:32 -9.6 °C -10 °C 34635.4 hPa West 2.6 km/h 10.3 km/h 95 % 0 mm
01:37 -9.5 °C -9.9 °C 34635.4 hPa Calm   10.3 km/h 95 % 0 mm
01:42 -9.5 °C -9.9 °C 34635.4 hPa Calm   10.3 km/h 95 % 0 mm
01:47 -9.5 °C -9.9 °C 34645.6 hPa Calm   10.3 km/h 95 % 0 mm
01:52 -9.5 °C -9.9 °C 34645.6 hPa WNW 2.6 km/h 5.1 km/h 95 % 0 mm
01:57 -9.5 °C -9.9 °C 34645.6 hPa Calm   7.7 km/h 95 % 0 mm
02:02 -9.4 °C -9.9 °C 34645.6 hPa West 2.6 km/h 7.7 km/h 95 % 0 mm
02:07 -9.4 °C -9.9 °C 34645.6 hPa WNW 7.7 km/h 7.7 km/h 94 % 0 mm
02:12 -9.4 °C -9.9 °C 34645.6 hPa NW 5.1 km/h 20.8 km/h 94 % 0 mm
02:17 -9.4 °C -9.9 °C 34645.6 hPa NNE 5.1 km/h 20.8 km/h 94 % 0 mm
02:22 -9.3 °C -9.9 °C 34645.6 hPa Calm   20.8 km/h 93 % 0 mm
02:32 -9.3 °C -9.9 °C 34645.6 hPa Calm   18.2 km/h 93 % 0 mm
02:37 -9.4 °C -10 °C 34645.6 hPa WNW 5.1 km/h 12.9 km/h 93 % 0 mm
02:42 -9.4 °C -10 °C 34645.6 hPa WSW 5.1 km/h 15.6 km/h 93 % 0 mm
02:47 -9.4 °C -10 °C 34645.6 hPa West 5.1 km/h 15.6 km/h 93 % 0 mm
02:52 -9.4 °C -10 °C 34645.6 hPa WSW 5.1 km/h 15.6 km/h 93 % 0 mm
02:57 -9.4 °C -10.1 °C 34645.6 hPa WNW 12.9 km/h 12.9 km/h 93 % 0 mm
03:02 -9.5 °C -10.1 °C 34645.6 hPa WNW 5.1 km/h 20.8 km/h 93 % 0 mm
03:07 -9.5 °C -10.1 °C 34645.6 hPa WNW 2.6 km/h 20.8 km/h 93 % 0 mm
03:12 -9.6 °C -10.1 °C 34645.6 hPa Calm   20.8 km/h 94 % 0 mm
03:17 -9.6 °C -10.1 °C 34645.6 hPa Calm   10.3 km/h 94 % 0 mm
03:22 -9.6 °C -10.1 °C 34645.6 hPa WNW 5.1 km/h 7.7 km/h 94 % 0 mm
03:27 -9.6 °C -10.2 °C 34645.6 hPa West 2.6 km/h 5.1 km/h 94 % 0 mm
03:32 -9.6 °C -10.2 °C 34645.6 hPa West 2.6 km/h 10.3 km/h 94 % 0 mm
03:37 -9.6 °C -10.2 °C 34645.6 hPa Calm   10.3 km/h 94 % 0 mm
03:42 -9.6 °C -10.2 °C 34645.6 hPa Calm   7.7 km/h 94 % 0 mm
03:47 -9.6 °C -10.2 °C 34659.1 hPa WNW 7.7 km/h 7.7 km/h 94 % 0 mm
03:52 -9.6 °C -10.1 °C 34645.6 hPa WNW 5.1 km/h 10.3 km/h 95 % 0 mm
03:57 -9.6 °C -10.2 °C 34645.6 hPa WNW 5.1 km/h 10.3 km/h 94 % 0 mm
04:02 -9.6 °C -10.2 °C 34645.6 hPa Calm   10.3 km/h 94 % 0 mm
04:07 -9.6 °C -10.2 °C 34645.6 hPa NW 2.6 km/h 10.3 km/h 94 % 0 mm
04:17 -9.6 °C -10.2 °C 34659.1 hPa West 2.6 km/h 12.9 km/h 94 % 0 mm
04:22 -9.6 °C -10.2 °C 34659.1 hPa Calm   12.9 km/h 94 % 0 mm
04:32 -9.7 °C -10.2 °C 34659.1 hPa WNW 2.6 km/h 15.6 km/h 94 % 0 mm
04:37 -9.7 °C -10.2 °C 34659.1 hPa North 2.6 km/h 15.6 km/h 94 % 0 mm
04:42 -9.7 °C -10.2 °C 34659.1 hPa Calm   15.6 km/h 94 % 0 mm
04:47 -9.7 °C -10.2 °C 34659.1 hPa Calm   10.3 km/h 94 % 0 mm
04:52 -9.7 °C -10.2 °C 34659.1 hPa Calm   10.3 km/h 94 % 0 mm
04:57 -9.7 °C -10.3 °C 34659.1 hPa SW 5.1 km/h 5.1 km/h 94 % 0 mm
05:02 -9.7 °C -10.3 °C 34659.1 hPa West 5.1 km/h 10.3 km/h 94 % 0 mm
05:07 -9.8 °C -10.3 °C 34659.1 hPa WSW 10.3 km/h 18.2 km/h 94 % 0 mm
05:12 -9.7 °C -10.3 °C 34659.1 hPa West 7.7 km/h 20.8 km/h 94 % 0 mm
05:17 -9.7 °C -10.3 °C 34669.3 hPa WNW 7.7 km/h 20.8 km/h 94 % 0 mm
05:22 -9.8 °C -10.3 °C 34669.3 hPa WNW 5.1 km/h 20.8 km/h 94 % 0 mm
05:27 -9.8 °C -10.3 °C 34669.3 hPa West 7.7 km/h 15.6 km/h 94 % 0 mm
05:32 -9.8 °C -10.4 °C 34659.1 hPa WNW 7.7 km/h 12.9 km/h 94 % 0 mm
05:37 -9.9 °C -10.4 °C 34669.3 hPa WNW 5.1 km/h 12.9 km/h 94 % 0 mm
05:42 -9.9 °C -10.5 °C 34669.3 hPa NW 5.1 km/h 18.2 km/h 94 % 0 mm
05:47 -10 °C -10.6 °C 34669.3 hPa WNW 15.6 km/h 18.2 km/h 94 % 0 mm
05:52 -10.1 °C -10.6 °C 34669.3 hPa West 5.1 km/h 23.3 km/h 94 % 0 mm
05:57 -10.1 °C -10.6 °C 34682.8 hPa WNW 12.9 km/h 23.3 km/h 94 % 0 mm
06:02 -10.1 °C -10.6 °C 34682.8 hPa WNW 2.6 km/h 23.3 km/h 94 % 0 mm
06:07 -10.2 °C -10.7 °C 34682.8 hPa WNW 2.6 km/h 20.8 km/h 94 % 0 mm
06:12 -10.2 °C -10.7 °C 34682.8 hPa West 2.6 km/h 20.8 km/h 94 % 0 mm
06:17 -10.2 °C -10.7 °C 34682.8 hPa WSW 7.7 km/h 12.9 km/h 94 % 0 mm
06:22 -10.3 °C -10.8 °C 34682.8 hPa WNW 10.3 km/h 15.6 km/h 94 % 0 mm
06:32 -10.3 °C -10.8 °C 34682.8 hPa WNW 2.6 km/h 15.6 km/h 94 % 0 mm
06:37 -10.3 °C -10.8 °C 34682.8 hPa Calm   12.9 km/h 94 % 0 mm
06:42 -10.3 °C -10.8 °C 34682.8 hPa Calm   12.9 km/h 94 % 0 mm
06:47 -10.3 °C -10.8 °C 34682.8 hPa WSW 2.6 km/h 2.6 km/h 94 % 0 mm
06:52 -10.3 °C -10.9 °C 34682.8 hPa Calm   7.7 km/h 93 % 0 mm
07:02 -10.2 °C -10.8 °C 34682.8 hPa Calm   7.7 km/h 93 % 0 mm
07:12 -10.1 °C -10.8 °C 34682.8 hPa Calm   2.6 km/h 92 % 0 mm
07:17 -10.1 °C -10.8 °C 34682.8 hPa Calm   2.6 km/h 92 % 0 mm
07:22 -10.1 °C -10.8 °C 34682.8 hPa Calm   2.6 km/h 91 % 0 mm
07:27 -10.1 °C -10.8 °C 34682.8 hPa Calm   2.6 km/h 91 % 0 mm
07:32 -9.9 °C -10.7 °C 34693 hPa Calm     92 % 0 mm
07:37 -9.9 °C -10.8 °C 34693 hPa Calm     90 % 0 mm
07:42 -9.9 °C -10.8 °C 34682.8 hPa Calm   7.7 km/h 90 % 0 mm
07:47 -9.8 °C -10.8 °C 34693 hPa Calm   7.7 km/h 89 % 0 mm
07:52 -9.8 °C -10.8 °C 34693 hPa Calm   7.7 km/h 89 % 0 mm
07:57 -9.8 °C -10.9 °C 34693 hPa Calm   5.1 km/h 88 % 0 mm
08:02 -9.6 °C -10.6 °C 34693 hPa Calm   5.1 km/h 89 % 0 mm
08:07 -9.4 °C -10.6 °C 34693 hPa Calm   5.1 km/h 87 % 0 mm
08:12 -9.4 °C -10.7 °C 34693 hPa Calm   7.7 km/h 86 % 0 mm
08:17 -9.2 °C -10.4 °C 34693 hPa SSW 5.1 km/h 7.7 km/h 87 % 0 mm
08:22 -9.2 °C -10.5 °C 34693 hPa WSW 12.9 km/h 12.9 km/h 86 % 0 mm
08:27 -9.3 °C -10.6 °C 34693 hPa West 10.3 km/h 15.6 km/h 86 % 0 mm
08:32 -9.4 °C -11 °C 34693 hPa West 12.9 km/h 15.6 km/h 83 % 0 mm
08:37 -9.4 °C -10.8 °C 34693 hPa WSW 7.7 km/h 18.2 km/h 85 % 0 mm
08:42 -9.6 °C -10.9 °C 34693 hPa WSW 15.6 km/h 18.2 km/h 85 % 0 mm
08:47 -9.6 °C -10.8 °C 34693 hPa West 7.7 km/h 18.2 km/h 86 % 0 mm
08:52 -9.6 °C -10.9 °C 34703.1 hPa SSW 10.3 km/h 18.2 km/h 86 % 0 mm
08:57 -9.7 °C -10.9 °C 34703.1 hPa WSW 18.2 km/h 20.8 km/h 86 % 0 mm
09:02 -9.7 °C -11 °C 34703.1 hPa SW 10.3 km/h 20.8 km/h 86 % 0 mm
09:12 -9.7 °C -10.8 °C 34703.1 hPa SW 10.3 km/h 18.2 km/h 88 % 0 mm
09:17 -9.8 °C -10.9 °C 34703.1 hPa WSW 12.9 km/h 18.2 km/h 88 % 0 mm
09:22 -9.8 °C -10.8 °C 34703.1 hPa SW 12.9 km/h 20.8 km/h 89 % 0 mm
09:27 -9.8 °C -10.8 °C 34703.1 hPa WSW 15.6 km/h 20.8 km/h 89 % 0 mm
09:32 -9.9 °C -11 °C 34703.1 hPa SSE 5.1 km/h 23.3 km/h 88 % 0 mm
09:42 -9.8 °C -10.9 °C 34703.1 hPa SW 12.9 km/h 23.3 km/h 88 % 0 mm
09:47 -9.8 °C -10.9 °C 34703.1 hPa SW 5.1 km/h 20.8 km/h 87 % 0 mm
09:52 -9.7 °C -10.8 °C 34703.1 hPa WSW 12.9 km/h 20.8 km/h 88 % 0 mm
09:57 -9.7 °C -10.8 °C 34703.1 hPa WNW 7.7 km/h 20.8 km/h 87 % 0 mm
10:02 -9.6 °C -10.8 °C 34703.1 hPa WSW 7.7 km/h 25.9 km/h 87 % 0 mm
10:12 -9.6 °C -10.8 °C 34716.7 hPa WSW 20.8 km/h 25.9 km/h 87 % 0 mm
10:17 -9.6 °C -10.8 °C 34716.7 hPa WSW 10.3 km/h 23.3 km/h 87 % 0 mm
10:22 -9.7 °C -10.8 °C 34716.7 hPa SW 18.2 km/h 20.8 km/h 87 % 0 mm
10:27 -9.7 °C -10.9 °C 34716.7 hPa WSW 10.3 km/h 20.8 km/h 87 % 0 mm
10:32 -9.8 °C -10.9 °C 34716.7 hPa WSW 18.2 km/h 25.9 km/h 87 % 0 mm
10:37 -9.7 °C -10.8 °C 34716.7 hPa SW 2.6 km/h 25.9 km/h 88 % 0 mm
10:42 -9.7 °C -10.8 °C 34716.7 hPa SSW 12.9 km/h 25.9 km/h 87 % 0 mm
10:47 -9.7 °C -10.8 °C 34716.7 hPa West 5.1 km/h 20.8 km/h 87 % 0 mm
10:52 -9.7 °C -10.8 °C 34716.7 hPa West 7.7 km/h 20.8 km/h 88 % 0 mm
10:57 -9.7 °C -10.8 °C 34716.7 hPa WSW 7.7 km/h 20.8 km/h 88 % 0 mm
11:02 -9.6 °C -10.7 °C 34716.7 hPa West 5.1 km/h 20.8 km/h 88 % 0 mm
11:12 -9.8 °C -10.9 °C 34726.8 hPa West 7.7 km/h 25.9 km/h 87 % 7.62 mm
11:17 -9.8 °C -10.9 °C 34726.8 hPa West 10.3 km/h 25.9 km/h 88 % 7.62 mm
11:22 -9.8 °C -10.9 °C 34726.8 hPa West 7.7 km/h 25.9 km/h 88 % 7.62 mm
11:32 -9.8 °C -10.8 °C 34726.8 hPa WSW 10.3 km/h 18.2 km/h 89 % 7.62 mm
11:37 -9.8 °C -10.8 °C 34726.8 hPa WSW 7.7 km/h 18.2 km/h 89 % 7.62 mm
11:42 -9.8 °C -10.7 °C 34726.8 hPa WSW 7.7 km/h 18.2 km/h 90 % 7.62 mm
11:47 -9.9 °C -10.9 °C 34726.8 hPa WNW 12.9 km/h 23.3 km/h 89 % 7.62 mm
11:52 -9.9 °C -10.9 °C 34726.8 hPa WSW 5.1 km/h 23.3 km/h 89 % 7.62 mm
11:57 -9.8 °C -10.7 °C 34726.8 hPa WSW 5.1 km/h 23.3 km/h 90 % 7.62 mm
12:02 -9.8 °C -10.7 °C 34726.8 hPa SSW 5.1 km/h 18.2 km/h 90 % 7.62 mm
12:07 -9.8 °C -10.7 °C 34726.8 hPa WSW 10.3 km/h 18.2 km/h 90 % 7.62 mm
12:12 -9.8 °C -10.7 °C 34726.8 hPa WSW 2.6 km/h 18.2 km/h 90 % 0 mm
12:17 -9.7 °C -10.6 °C 34726.8 hPa SW 12.9 km/h 18.2 km/h 90 % 0 mm
12:22 -9.7 °C -10.6 °C 34726.8 hPa South 15.6 km/h 23.3 km/h 90 % 0 mm
12:32 -9.8 °C -10.7 °C 34726.8 hPa SW 5.1 km/h 23.3 km/h 90 % 0 mm
12:42 -9.8 °C -10.6 °C 34726.8 hPa SW 18.2 km/h 25.9 km/h 91 % 0 mm
12:47 -9.8 °C -10.5 °C 34726.8 hPa SW 25.9 km/h 25.9 km/h 92 % 0 mm
12:57 -9.7 °C -10.4 °C 34726.8 hPa SW 10.3 km/h 25.9 km/h 92 % 0 mm
13:02 -9.6 °C -10.3 °C 34726.8 hPa West 20.8 km/h 25.9 km/h 92 % 0 mm
13:07 -9.6 °C -10.3 °C 34726.8 hPa WSW 15.6 km/h 20.8 km/h 92 % 0 mm
13:12 -9.5 °C -10.2 °C 34726.8 hPa SSW 2.6 km/h 20.8 km/h 92 % 0 mm
13:17 -9.6 °C -10.3 °C 34726.8 hPa SSW 12.9 km/h 25.9 km/h 92 % 0 mm
13:22 -9.6 °C -10.3 °C 34726.8 hPa WSW 7.7 km/h 25.9 km/h 92 % 0 mm
13:27 -9.5 °C -10.2 °C 34726.8 hPa SW 20.8 km/h 25.9 km/h 92 % 0 mm
13:32 -9.5 °C -10.2 °C 34726.8 hPa SW 12.9 km/h 25.9 km/h 92 % 0 mm
13:37 -9.5 °C -10.2 °C 34726.8 hPa West 7.7 km/h 23.3 km/h 92 % 0 mm
13:42 -9.4 °C -10.2 °C 34716.7 hPa West 12.9 km/h 20.8 km/h 92 % 0 mm
13:47 -9.4 °C -10.1 °C 34716.7 hPa SW 18.2 km/h 20.8 km/h 92 % 0 mm
13:52 -9.3 °C -10 °C 34716.7 hPa SW 5.1 km/h 20.8 km/h 92 % 0 mm
13:57 -9.3 °C -10.2 °C 34716.7 hPa WSW 12.9 km/h 25.9 km/h 91 % 0 mm
14:02 -9.3 °C -10.1 °C 34716.7 hPa SW 10.3 km/h 25.9 km/h 92 % 0 mm
14:07 -9.3 °C -10 °C 34716.7 hPa SW 12.9 km/h 25.9 km/h 92 % 0 mm
14:12 -9.2 °C -9.9 °C 34716.7 hPa SW 12.9 km/h 25.9 km/h 92 % 0 mm
14:17 -9.2 °C -10.1 °C 34716.7 hPa West 25.9 km/h 25.9 km/h 91 % 0 mm
14:22 -9.3 °C -10.1 °C 34716.7 hPa SW 12.9 km/h 25.9 km/h 91 % 0 mm
14:32 -9.3 °C -10.1 °C 34726.8 hPa West 15.6 km/h 31.1 km/h 91 % 0 mm
14:37 -9.3 °C -10.1 °C 34726.8 hPa WNW 15.6 km/h 31.1 km/h 91 % 0 mm
14:42 -9.3 °C -10.2 °C 34726.8 hPa WSW 18.2 km/h 28.5 km/h 91 % 0 mm
14:47 -9.3 °C -10.1 °C 34726.8 hPa WNW 10.3 km/h 28.5 km/h 92 % 0 mm
14:52 -9.3 °C -10.2 °C 34726.8 hPa WSW 10.3 km/h 28.5 km/h 91 % 0 mm
14:57 -9.3 °C -10.1 °C 34726.8 hPa WSW 12.9 km/h 28.5 km/h 92 % 0 mm
15:02 -9.3 °C -10.1 °C 34726.8 hPa West 7.7 km/h 28.5 km/h 92 % 0 mm
15:12 -9.3 °C -9.9 °C 34726.8 hPa West 12.9 km/h 28.5 km/h 93 % 0 mm
15:17 -9.2 °C -9.8 °C 34726.8 hPa West 12.9 km/h 28.5 km/h 93 % 0 mm
15:22 -9.2 °C -9.9 °C 34726.8 hPa WSW 10.3 km/h 25.9 km/h 92 % 0 mm
15:27 -9.1 °C -9.7 °C 34726.8 hPa WSW 10.3 km/h 25.9 km/h 93 % 0 mm
15:32 -9.1 °C -9.8 °C 34716.7 hPa West 10.3 km/h 25.9 km/h 92 % 0 mm
15:37 -9.1 °C -9.9 °C 34716.7 hPa West 7.7 km/h 25.9 km/h 91 % 0 mm
15:42 -9.1 °C -9.8 °C 34726.8 hPa WSW 12.9 km/h 23.3 km/h 92 % 0 mm
15:47 -9.1 °C -9.9 °C 34726.8 hPa West 7.7 km/h 23.3 km/h 91 % 0 mm
15:52 -9.1 °C -9.9 °C 34716.7 hPa SSW 12.9 km/h 23.3 km/h 91 % 0 mm
15:57 -9.2 °C -10.1 °C 34716.7 hPa WSW 15.6 km/h 25.9 km/h 91 % 0 mm
16:02 -9.2 °C -9.9 °C 34726.8 hPa SW 18.2 km/h 25.9 km/h 92 % 0 mm
16:07 -9.1 °C -9.9 °C 34726.8 hPa West 7.7 km/h 28.5 km/h 91 % 0 mm
16:12 -9.2 °C -10.1 °C 34726.8 hPa West 7.7 km/h 28.5 km/h 91 % 0 mm
16:17 -9.2 °C -10.1 °C 34726.8 hPa West 12.9 km/h 28.5 km/h 91 % 0 mm
16:22 -9.2 °C -10 °C 34726.8 hPa West 10.3 km/h 25.9 km/h 91 % 0 mm
16:27 -9.1 °C -9.9 °C 34726.8 hPa West 7.7 km/h 25.9 km/h 91 % 0 mm
16:32 -9.1 °C -9.9 °C 34726.8 hPa West 23.3 km/h 25.9 km/h 91 % 0 mm
16:37 -9.1 °C -9.9 °C 34726.8 hPa WSW 18.2 km/h 23.3 km/h 91 % 0 mm
16:42 -9.1 °C -9.9 °C 34726.8 hPa West 12.9 km/h 23.3 km/h 91 % 0 mm
16:47 -9.1 °C -9.9 °C 34726.8 hPa WSW 10.3 km/h 23.3 km/h 91 % 0 mm
16:52 -9.1 °C -9.9 °C 34726.8 hPa West 18.2 km/h 28.5 km/h 91 % 0 mm
16:57 -9.1 °C -9.9 °C 34726.8 hPa West 10.3 km/h 28.5 km/h 91 % 0 mm
17:02 -9.1 °C -9.8 °C 34726.8 hPa WNW 10.3 km/h 28.5 km/h 92 % 0 mm
17:07 -9.1 °C -9.8 °C 34726.8 hPa West 12.9 km/h 23.3 km/h 92 % 0 mm
17:12 -9.1 °C -9.8 °C 34726.8 hPa WSW 7.7 km/h 20.8 km/h 92 % 0 mm
17:17 -9.1 °C -9.8 °C 34726.8 hPa West 12.9 km/h 20.8 km/h 92 % 0 mm
17:22 -9.1 °C -9.7 °C 34726.8 hPa WSW 7.7 km/h 18.2 km/h 93 % 0 mm
17:27 -9.1 °C -9.7 °C 34726.8 hPa WSW 18.2 km/h 18.2 km/h 93 % 0 mm
17:32 -9.1 °C -9.8 °C 34726.8 hPa West 15.6 km/h 20.8 km/h 92 % 0 mm
17:37 -9.1 °C -9.8 °C 34726.8 hPa West 18.2 km/h 23.3 km/h 92 % 0 mm
17:42 -9.1 °C -9.7 °C 34726.8 hPa WSW 10.3 km/h 23.3 km/h 93 % 0 mm
17:47 -9.1 °C -9.7 °C 34726.8 hPa WNW 5.1 km/h 23.3 km/h 93 % 0 mm
17:52 -9 °C -9.7 °C 34726.8 hPa West 7.7 km/h 23.3 km/h 92 % 0 mm
17:57 -8.9 °C -9.7 °C 34726.8 hPa West 10.3 km/h 20.8 km/h 92 % 0 mm
18:02 -8.9 °C -9.7 °C 34726.8 hPa West 5.1 km/h 23.3 km/h 91 % 0 mm
18:07 -8.8 °C -9.7 °C 34726.8 hPa WNW 12.9 km/h 23.3 km/h 91 % 0 mm
18:12 -8.8 °C -9.7 °C 34716.7 hPa West 15.6 km/h 23.3 km/h 91 % 0 mm
18:17 -8.8 °C -9.7 °C 34716.7 hPa WSW 12.9 km/h 23.3 km/h 91 % 0 mm
18:22 -8.8 °C -9.6 °C 34716.7 hPa WNW 7.7 km/h 20.8 km/h 91 % 0 mm
18:27 -8.7 °C -9.6 °C 34716.7 hPa West 7.7 km/h 20.8 km/h 91 % 0 mm
18:32 -8.7 °C -9.5 °C 34716.7 hPa West 12.9 km/h 18.2 km/h 91 % 0 mm
18:42 -8.7 °C -9.6 °C 34716.7 hPa West 5.1 km/h 20.8 km/h 90 % 0 mm
18:47 -8.7 °C -9.5 °C 34716.7 hPa West 7.7 km/h 20.8 km/h 91 % 0 mm
18:52 -8.7 °C -9.5 °C 34716.7 hPa WSW 15.6 km/h 23.3 km/h 91 % 0 mm
18:57 -8.7 °C -9.6 °C 34716.7 hPa West 10.3 km/h 23.3 km/h 90 % 0 mm
19:02 -8.7 °C -9.5 °C 34726.8 hPa West 7.7 km/h 23.3 km/h 91 % 0 mm
19:07 -8.6 °C -9.4 °C 34716.7 hPa WNW 5.1 km/h 20.8 km/h 91 % 0 mm
19:12 -8.6 °C -9.4 °C 34716.7 hPa Calm   18.2 km/h 90 % 0 mm
19:17 -8.5 °C -9.4 °C 34716.7 hPa WSW 5.1 km/h 18.2 km/h 90 % 0 mm
19:22 -8.4 °C -9.4 °C 34716.7 hPa WSW 5.1 km/h 15.6 km/h 90 % 0 mm
19:27 -8.5 °C -9.5 °C 34716.7 hPa WSW 5.1 km/h 18.2 km/h 89 % 0 mm
19:32 -8.4 °C -9.4 °C 34716.7 hPa WSW 10.3 km/h 18.2 km/h 90 % 0 mm
19:37 -8.4 °C -9.4 °C 34716.7 hPa West 5.1 km/h 20.8 km/h 90 % 0 mm
19:42 -8.4 °C -9.4 °C 34716.7 hPa WSW 5.1 km/h 20.8 km/h 89 % 0 mm
19:52 -8.4 °C -9.4 °C 34716.7 hPa SW 2.6 km/h 20.8 km/h 89 % 0 mm
19:57 -8.4 °C -9.3 °C 34716.7 hPa SSW 5.1 km/h 12.9 km/h 90 % 0 mm
20:02 -8.3 °C -9.3 °C 34716.7 hPa WSW 5.1 km/h 12.9 km/h 89 % 0 mm
20:07 -8.3 °C -9.3 °C 34716.7 hPa West 5.1 km/h 12.9 km/h 89 % 0 mm
20:12 -8.3 °C -9.3 °C 34716.7 hPa West 5.1 km/h 12.9 km/h 89 % 0 mm
20:17 -8.3 °C -9.3 °C 34716.7 hPa SW 2.6 km/h 12.9 km/h 89 % 0 mm
20:22 -8.2 °C -9.2 °C 34716.7 hPa SW 5.1 km/h 12.9 km/h 89 % 0 mm
20:32 -8.3 °C -9.3 °C 34716.7 hPa West 7.7 km/h 7.7 km/h 89 % 0 mm
20:37 -8.3 °C -9.3 °C 34726.8 hPa Calm   10.3 km/h 89 % 0 mm
20:42 -8.3 °C -9.3 °C 34726.8 hPa WNW 2.6 km/h 10.3 km/h 89 % 0 mm
20:47 -8.3 °C -9.3 °C 34726.8 hPa SW 5.1 km/h 10.3 km/h 89 % 0 mm
20:52 -8.3 °C -9.2 °C 34726.8 hPa SW 5.1 km/h 10.3 km/h 90 % 0 mm
20:57 -8.3 °C -9.3 °C 34726.8 hPa WSW 2.6 km/h 10.3 km/h 90 % 0 mm
21:02 -8.3 °C -9.3 °C 34726.8 hPa WSW 5.1 km/h 10.3 km/h 90 % 0 mm
21:07 -8.4 °C -9.3 °C 34726.8 hPa SW 10.3 km/h 12.9 km/h 90 % 0 mm
21:12 -8.4 °C -9.3 °C 34726.8 hPa SW 2.6 km/h 12.9 km/h 90 % 0 mm
21:17 -8.4 °C -9.3 °C 34726.8 hPa West 2.6 km/h 12.9 km/h 90 % 0 mm
21:22 -8.4 °C -9.2 °C 34726.8 hPa WSW 7.7 km/h 12.9 km/h 91 % 0 mm
21:27 -8.4 °C -9.3 °C 34726.8 hPa SW 2.6 km/h 10.3 km/h 91 % 0 mm
21:32 -8.4 °C -9.3 °C 34726.8 hPa SW 5.1 km/h 10.3 km/h 91 % 0 mm
21:42 -8.5 °C -9.2 °C 34740.4 hPa SW 7.7 km/h 10.3 km/h 92 % 0 mm
21:47 -8.5 °C -9.2 °C 34740.4 hPa SW 5.1 km/h 10.3 km/h 92 % 0 mm
21:52 -8.6 °C -9.3 °C 34740.4 hPa SW 7.7 km/h 10.3 km/h 92 % 0 mm
21:57 -8.6 °C -9.3 °C 34740.4 hPa SW 2.6 km/h 10.3 km/h 92 % 0 mm
22:02 -8.6 °C -9.3 °C 34740.4 hPa SW 5.1 km/h 7.7 km/h 92 % 0 mm
22:07 -8.6 °C -9.3 °C 34740.4 hPa SSW 5.1 km/h 10.3 km/h 92 % 0 mm
22:12 -8.7 °C -9.3 °C 34740.4 hPa SSW 5.1 km/h 10.3 km/h 93 % 0 mm
22:17 -8.7 °C -9.3 °C 34740.4 hPa SSW 2.6 km/h 10.3 km/h 93 % 0 mm
22:27 -8.7 °C -9.3 °C 34740.4 hPa Calm   7.7 km/h 93 % 0 mm
22:32 -8.8 °C -9.3 °C 34740.4 hPa Calm   5.1 km/h 94 % 0 mm
22:37 -8.8 °C -9.3 °C 34740.4 hPa SSW 2.6 km/h 5.1 km/h 94 % 0 mm
22:42 -8.8 °C -9.3 °C 34740.4 hPa SW 2.6 km/h 5.1 km/h 94 % 0 mm
22:47 -8.8 °C -9.4 °C 34740.4 hPa SW 2.6 km/h 5.1 km/h 94 % 0 mm
22:52 -8.8 °C -9.4 °C 34740.4 hPa SW 2.6 km/h 5.1 km/h 94 % 0 mm
22:57 -8.8 °C -9.4 °C 34750.5 hPa SSW 2.6 km/h 5.1 km/h 94 % 0 mm
23:02 -8.8 °C -9.4 °C 34750.5 hPa SW 2.6 km/h 5.1 km/h 94 % 0 mm
23:12 -8.9 °C -9.4 °C 34740.4 hPa SSW 2.6 km/h 7.7 km/h 95 % 0 mm
23:17 -8.9 °C -9.4 °C 34740.4 hPa SW 5.1 km/h 7.7 km/h 95 % 0 mm
23:22 -8.9 °C -9.4 °C 34750.5 hPa SSW 2.6 km/h 7.7 km/h 95 % 0 mm
23:27 -8.9 °C -9.4 °C 34740.4 hPa SSW 2.6 km/h 7.7 km/h 95 % 0 mm
23:32 -8.9 °C -9.4 °C 34740.4 hPa SSW 5.1 km/h 7.7 km/h 95 % 0 mm
23:37 -8.9 °C -9.4 °C 34740.4 hPa SW 5.1 km/h 10.3 km/h 95 % 0 mm
23:42 -8.9 °C -9.3 °C 34740.4 hPa SSW 7.7 km/h 10.3 km/h 96 % 0 mm
23:47 -8.9 °C -9.2 °C 34740.4 hPa SW 10.3 km/h 10.3 km/h 96 % 0 mm
23:52 -8.9 °C -9.2 °C 34740.4 hPa SW 7.7 km/h 15.6 km/h 96 % 0 mm
23:57 -8.9 °C -9.2 °C 34740.4 hPa SSW 2.6 km/h 15.6 km/h 96 % 0 mm
Meteo18
Compliments of Weather Underground - 4 mb

Script developed by  Jim McMurry - jmcmurry@mwt.net Adapted for the template by  Wim van der Kuil - Leuven-Template.eu

You find our weather info also at:

European Weather Network

Weather Underground

Equipment we use:

Weather-station
Davis Vue

Weather-program
Meteobridge

Weather-server
Raspberry PI 2 B+

Provider
1 and 1

Davis Vue

Meteobridge

Raspberry PI 2 B+

1 and 1